Starlink 33576

operational
NORAD ID: 62775 Int'l Des: 2025-015 Owner: SPXS Country: US Constellation: starlink
LEOCIRCULAR

Über Starlink 33576

Beschreibung wird geladen...

Live-Position

3D-Globus wird geladen...

Nächste Überflüge

Höhenverlauf

Altitude vs Time

uPlot chart will show altitude changes over time

Zweizeiliger Elementsatz

1 62775U 25015T 26035.92667234 .00029916 00000-0 10178-2 0 9991
2 62775 53.1592 114.7333 0001066 75.6847 284.4273 15.30211296 59404
Epoch: 4. Feb. 2026 • Age: 16 hours

Aktueller Status

Höhe 476.8 km
Geschwindigkeit 7.63 km/s
Subsatellitenpunkt 32.32°N, 90.04°W
Startdatum 21. Jan. 2025
Alter 1 years
Typ internet

Technische Details

Klassifizierung Payload
Masse 575.00 kg
Trockenmasse 530.00 kg
Gesamtmasse 575.00 kg
Länge 0.30 m
Durchmesser 4.10 m
Spannweite 29.00 m
Form Box + pan
Hersteller SPXS
Bus-Typ Starlink V2MO
Phasenstatus In Orbit
Besitzer/Staat SPXS/US

Große Konstellationen

Loading constellations...